When you browse on this site, cookies collect data to enhance your experience and personalize the content and advertising you see.
Visit our Privacy Policy to learn more. By continuing to use the site, you agree to this use of cookies and data.
  • In Hungary
  • List of Countries
  • For 7 days
  • Water Temperature
  • Satellite Maps
  • Weather Map
  • News
  • Weather Widgets
  • user-avatar
    Login

    Hourly Weather Tarin Kowt

    Today, 12 December, Wednesday

    Time Temperature Precipitation Wind Pressure Humidity
    00:00 +3°C° 0 mm 0 mps 615 mmHg 53%
    01:00 +2°C° 0 mm 0 mps 615 mmHg 54%
    02:00 +2°C° 0 mm 0 mps 615 mmHg 54%
    03:00 +2°C° 0 mm 0 mps 615 mmHg 54%
    04:00 +2°C° 0 mm 1 mps 615 mmHg 54%
    05:00 +2°C° 0 mm 1 mps 616 mmHg 54%
    06:00 +2°C° 0 mm 1 mps 616 mmHg 53%
    07:00 +2°C° 0 mm 1 mps 616 mmHg 52%
    08:00 +4°C° 0 mm 1 mps 617 mmHg 46%
    09:00 +4°C° 0 mm 0 mps 618 mmHg 41%
    10:00 +6°C° 0 mm 0 mps 618 mmHg 35%
    11:00 +7°C° 0 mm 1 mps 618 mmHg 33%
    12:00 +8°C° 0 mm 1 mps 618 mmHg 31%
    13:00 +9°C° 0 mm 1 mps 618 mmHg 29%
    14:00 +9°C° 0 mm 1 mps 618 mmHg 30%
    15:00 +8°C° 0 mm 1 mps 618 mmHg 30%
    16:00 +8°C° 0 mm 1 mps 618 mmHg 30%
    17:00 +7°C° 0 mm 1 mps 618 mmHg 34%
    18:00 +6°C° 0 mm 1 mps 618 mmHg 38%
    19:00 +5°C° 0 mm 1 mps 618 mmHg 42%
    20:00 +4°C° 0 mm 0 mps 618 mmHg 44%
    21:00 +3°C° 0 mm 0 mps 618 mmHg 45%
    22:00 +3°C° 0 mm 0 mps 618 mmHg 47%
    23:00 +3°C° 0 mm 0 mps 618 mmHg 48%

    Tomorrow, 13 December, Thursday

    Time Temperature Precipitation Wind Pressure Humidity
    00:00 +2°C° 0 mm 0 mps 617 mmHg 49%
    01:00 +2°C° 0 mm 0 mps 617 mmHg 50%
    02:00 +1°C° 0 mm 0 mps 617 mmHg 50%
    03:00 +1°C° 0 mm 0 mps 617 mmHg 50%
    04:00 +1°C° 0 mm 0 mps 617 mmHg 50%
    05:00 +1°C° 0 mm 0 mps 617 mmHg 50%
    06:00 +1°C° 0 mm 0 mps 618 mmHg 49%
    07:00 +1°C° 0 mm 0 mps 618 mmHg 48%
    08:00 +3°C° 0 mm 0 mps 619 mmHg 42%
    09:00 +5°C° 0 mm 0 mps 620 mmHg 36%
    10:00 +7°C° 0 mm 0 mps 620 mmHg 30%
    11:00 +8°C° 0 mm 1 mps 620 mmHg 28%
    12:00 +9°C° 0 mm 1 mps 620 mmHg 26%
    13:00 +10°C° 0 mm 1 mps 620 mmHg 25%
    14:00 +9°C° 0 mm 1 mps 620 mmHg 26%
    15:00 +9°C° 0 mm 1 mps 619 mmHg 27%
    16:00 +9°C° 0 mm 1 mps 619 mmHg 28%
    17:00 +8°C° 0 mm 1 mps 619 mmHg 31%
    18:00 +7°C° 0 mm 1 mps 619 mmHg 34%
    19:00 +5°C° 0 mm 0 mps 619 mmHg 38%
    20:00 +4°C° 0 mm 0 mps 619 mmHg 39%
    21:00 +4°C° 0 mm 0 mps 618 mmHg 40%
    22:00 +3°C° 0 mm 0 mps 618 mmHg 42%
    23:00 +3°C° 0 mm 0 mps 618 mmHg 42%

    Day after tomorrow, 14 December, Friday

    Time Temperature Precipitation Wind Pressure Humidity
    00:00 +2°C° 0 mm 0 mps 618 mmHg 43%
    01:00 +2°C° 0 mm 0 mps 618 mmHg 43%
    02:00 +2°C° 0 mm 0 mps 618 mmHg 42%
    03:00 +3°C° 0 mm 1 mps 618 mmHg 42%
    04:00 +2°C° 0 mm 1 mps 617 mmHg 41%
    05:00 +2°C° 0 mm 1 mps 618 mmHg 41%
    06:00 +2°C° 0 mm 1 mps 618 mmHg 40%
    07:00 +2°C° 0 mm 1 mps 618 mmHg 39%
    08:00 +4°C° 0 mm 1 mps 619 mmHg 34%
    09:00 +7°C° 0 mm 1 mps 620 mmHg 29%
    10:00 +8°C° 0 mm 0 mps 621 mmHg 23%
    11:00 +8°C° 0 mm 0 mps 621 mmHg 22%
    12:00 +9°C° 0 mm 0 mps 621 mmHg 21%
    13:00 +10°C° 0 mm 0 mps 620 mmHg 19%
    14:00 +11°C° 0 mm 1 mps 620 mmHg 21%
    15:00 +10°C° 0 mm 1 mps 620 mmHg 23%
    16:00 +10°C° 0 mm 1 mps 620 mmHg 24%
    17:00 +9°C° 0 mm 1 mps 620 mmHg 27%
    18:00 +6°C° 0 mm 0 mps 619 mmHg 30%
    19:00 +5°C° 0 mm 0 mps 619 mmHg 33%
    20:00 +5°C° 0 mm 0 mps 619 mmHg 34%
    21:00 +4°C° 0 mm 0 mps 619 mmHg 35%
    22:00 +4°C° 0 mm 0 mps 619 mmHg 35%
    23:00 +3°C° 0 mm 0 mps 619 mmHg 35%

    15 December, Saturday

    Time Temperature Precipitation Wind Pressure Humidity
    00:00 +3°C° 0 mm 0 mps 618 mmHg 35%
    01:00 +4°C° 0 mm 1 mps 618 mmHg 35%
    02:00 +3°C° 0 mm 1 mps 618 mmHg 35%
    03:00 +3°C° 0 mm 1 mps 618 mmHg 35%
    04:00 +3°C° 0 mm 1 mps 617 mmHg 34%
    05:00 +3°C° 0 mm 1 mps 618 mmHg 33%
    06:00 +3°C° 0 mm 1 mps 618 mmHg 32%
    07:00 +3°C° 0 mm 1 mps 618 mmHg 32%
    08:00 +5°C° 0 mm 1 mps 619 mmHg 27%
    09:00 +8°C° 0 mm 1 mps 620 mmHg 22%
    10:00 +10°C° 0 mm 1 mps 621 mmHg 17%
    11:00 +10°C° 0 mm 1 mps 621 mmHg 16%
    12:00 +10°C° 0 mm 0 mps 621 mmHg 15%
    13:00 +11°C° 0 mm 0 mps 621 mmHg 14%
    14:00 +10°C° 0 mm 0 mps 620 mmHg 16%
    15:00 +10°C° 0 mm 0 mps 620 mmHg 18%
    16:00 +9°C° 0 mm 0 mps 620 mmHg 21%
    17:00 +8°C° 0 mm 0 mps 619 mmHg 22%
    18:00 +7°C° 0 mm 0 mps 619 mmHg 24%
    19:00 +5°C° 0 mm 0 mps 619 mmHg 26%
    20:00 +5°C° 0 mm 0 mps 619 mmHg 26%
    21:00 +4°C° 0 mm 0 mps 619 mmHg 26%
    22:00 +4°C° 0 mm 0 mps 619 mmHg 26%
    23:00 +4°C° 0 mm 0 mps 619 mmHg 26%

    16 December, Sunday

    Time Temperature Precipitation Wind Pressure Humidity
    00:00 +4°C° 0 mm 1 mps 619 mmHg 26%
    01:00 +4°C° 0 mm 1 mps 618 mmHg 25%
    02:00 +4°C° 0 mm 1 mps 618 mmHg 25%
    03:00 +4°C° 0 mm 1 mps 618 mmHg 25%
    04:00 +4°C° 0 mm 1 mps 618 mmHg 24%
    05:00 +3°C° 0 mm 1 mps 618 mmHg 24%
    06:00 +3°C° 0 mm 1 mps 618 mmHg 24%
    07:00 +3°C° 0 mm 1 mps 619 mmHg 23%
    08:00 +6°C° 0 mm 1 mps 620 mmHg 20%
    09:00 +8°C° 0 mm 1 mps 621 mmHg 16%
    10:00 +10°C° 0 mm 1 mps 622 mmHg 13%
    11:00 +11°C° 0 mm 1 mps 622 mmHg 12%
    12:00 +12°C° 0 mm 1 mps 621 mmHg 11%
    13:00 +11°C° 0 mm 0 mps 621 mmHg 11%
    14:00 +11°C° 0 mm 0 mps 621 mmHg 13%
    15:00 +10°C° 0 mm 0 mps 620 mmHg 15%
    16:00 +9°C° 0 mm 0 mps 620 mmHg 17%
    17:00 +8°C° 0 mm 0 mps 620 mmHg 18%
    18:00 +7°C° 0 mm 0 mps 619 mmHg 20%
    19:00 +5°C° 0 mm 0 mps 619 mmHg 21%
    20:00 +5°C° 0 mm 0 mps 619 mmHg 21%
    21:00 +4°C° 0 mm 0 mps 619 mmHg 21%
    22:00 +4°C° 0 mm 0 mps 619 mmHg 21%
    23:00 +4°C° 0 mm 0 mps 619 mmHg 21%

    17 December, Monday

    Time Temperature Precipitation Wind Pressure Humidity
    00:00 +4°C° 0 mm 1 mps 618 mmHg 21%
    01:00 +4°C° 0 mm 1 mps 618 mmHg 21%
    02:00 +4°C° 0 mm 1 mps 618 mmHg 21%
    03:00 +3°C° 0 mm 1 mps 618 mmHg 21%
    04:00 +3°C° 0 mm 1 mps 617 mmHg 21%
    05:00 +3°C° 0 mm 1 mps 618 mmHg 21%
    06:00 +3°C° 0 mm 1 mps 618 mmHg 21%
    07:00 +3°C° 0 mm 1 mps 618 mmHg 21%
    08:00 +5°C° 0 mm 1 mps 619 mmHg 18%
    09:00 +7°C° 0 mm 0 mps 621 mmHg 14%
    10:00 +9°C° 0 mm 0 mps 622 mmHg 11%
    11:00 +10°C° 0 mm 0 mps 622 mmHg 11%
    12:00 +12°C° 0 mm 1 mps 621 mmHg 10%
    13:00 +12°C° 0 mm 1 mps 621 mmHg 10%
    14:00 +12°C° 0 mm 1 mps 621 mmHg 12%
    15:00 +11°C° 0 mm 1 mps 620 mmHg 14%
    16:00 +10°C° 0 mm 1 mps 620 mmHg 16%
    17:00 +9°C° 0 mm 1 mps 620 mmHg 18%
    18:00 +7°C° 0 mm 0 mps 619 mmHg 19%
    19:00 +5°C° 0 mm 0 mps 619 mmHg 20%
    20:00 +5°C° 0 mm 0 mps 619 mmHg 21%
    21:00 +4°C° 0 mm 0 mps 619 mmHg 21%
    22:00 +4°C° 0 mm 0 mps 619 mmHg 21%
    23:00 +3°C° 0 mm 0 mps 619 mmHg 21%
    Show more